User: anonymous   Login
Location: Asheville, NC
(35.6000°N, 82.5500°W)
Time: 06:24:07
(UTC-05:00)
Language:

VELOX 1 - Orbit

View from above orbital plane
View from above orbital plane
View from above satellite
View from above satellite

Ground track
Ground track

The orbit data is extracted from the following two-line orbital elements,

1 40057U 14034E   18020.05176759  .00000237  00000-0  40942-4 0  9994
2 40057  98.1948 128.6604 0012458  84.6657 275.5968 14.77325391191779
Epoch (UTC): 20 January 2018 01:14:32
Eccentricity: 0.0012458
inclination: 98.1948°
perigee height: 629 km
apogee height: 646 km
right ascension of ascending node: 128.6604°
argument of perigee: 84.6657°
revolutions per day: 14.77325391
mean anomaly at epoch: 275.5968°
orbit number at epoch: 19177

The dashed part of the orbit path shows where the satellite is in the earth's shadow,  

DLR